User: anonymous   Login
Location: Aboncourt
(47.7710°N, 5.9826°E)
Time: 21:54:07
(UTC+00:00)
Language:

Cosmos 2263 Rocket - Orbit

View from above orbital plane
View from above orbital plane
View from above satellite
View from above satellite

Ground track
Ground track

The orbit data is extracted from the following two-line orbital elements,

1 22803U 93059B   20272.33914339 -.00000136 +00000-0 -43851-4 0  9996
2 22803 070.9886 242.4414 0017500 351.4238 008.6584 14.16826575397875
Epoch (UTC): 28 September 2020 08:08:21
Eccentricity: 0.0017500
inclination: 70.9886°
perigee height: 823 km
apogee height: 849 km
right ascension of ascending node: 242.4414°
argument of perigee: 351.4238°
revolutions per day: 14.16826575
mean anomaly at epoch: 8.6584°
orbit number at epoch: 39787

The dashed part of the orbit path shows where the satellite is in the earth's shadow,  

DLR